Hourly Data Report for June 22, 2004

SHERBROOKE A
QUEBEC

45°26'00.000" N
71°41'00.000" W
241.40 m
7028124
71610
YSC

Download Data

Hourly Data (June 2004)
Hourly Data Report for June 22, 2004
TIME
LST
Temp Definition
°C
Dew Point Definition
°C
Rel Hum Definition
%
Precip. Amount Definition
mm

Wind Dir Definition
10's deg

Wind Spd Definition
km/h
Visibility Definition
km
Stn Press Definition
kPa
Hmdx Definition


Wind Chill Definition


Weather Definition


00:00 9.6 7.8 89   8 4 15.0 98.16      
01:00 9.6 7.9 89   7 4 15.0 98.19      
02:00 10.1 8.3 89   7 4 15.0 98.17      
03:00 10.8 8.6 86     0 15.0 98.17      
04:00 10.9 8.9 87   12 4 15.0 98.17      
05:00 11.3 9.7 90     0 15.0 98.18      
06:00 12.5 10.1 85   10 4 15.0 98.19      
07:00 14.0 10.9 82   4 4 24.1 98.13     Mostly Cloudy
08:00 14.5 11.3 81     0 24.1 98.11     Mostly Cloudy
09:00 17.6 12.8 73     0 24.1 98.02     Mostly Cloudy
10:00 18.3 11.8 66   19 6 24.1 98.03     Mostly Cloudy
11:00 17.3 11.7 70   20 7 24.1 98.06     Cloudy
12:00 16.6 12.9 79     0 9.7 98.03     Rain, Fog
13:00 16.4 14.0 86   13 11 24.1 97.92     Cloudy
14:00 16.4 14.3 87   9 7 24.1 97.85     Cloudy
15:00 16.4 14.6 89   10 7 24.1 97.79     Cloudy
16:00 16.6 14.3 86   14 7 19.3 97.75     Rain
17:00 16.4 14.5 89   19 6 5.6 97.71     Rain
18:00 16.3 14.8 91   17 6 4.8 97.65     Rain
19:00 15.9 14.9 94   7 4 1.6 97.68     Moderate Rain
20:00 16.0 14.9 93   18 6 4.8 97.68      
21:00 16.0 15.0 94   21 6 2.6 97.68      
22:00 16.3 15.2 93   23 11 3.9 97.67      
23:00 16.4 15.2 93   23 11 3.7 97.71      

Notes on Data Quality.

Legend

  • E = Estimated
  • M = Missing
  • NA = Not Available*
  • [empty] = Indicates an unobserved value
Date modified: